| time (UTC) | temp F | wind direction | speed MPH | gust MPH | rain 1hr in | rain 24hr in | rain mn in | humidity % | barometer mb |
| 20260906033532 | 65 | 153 | 0.0 | 1.0 | 0.00 | 0.01 | 0.01 | 90 | 1012.5 |
| 20260906033031 | 65 | 153 | 0.0 | 1.0 | 0.00 | 0.01 | 0.01 | 90 | 1012.4 |
| 20260906032530 | 65 | 153 | 0.0 | 0.0 | 0.00 | 0.01 | 0.01 | 90 | 1012.6 |
| 20260906032034 | 66 | 153 | 0.0 | 1.0 | 0.00 | 0.01 | 0.01 | 89 | 1012.6 |
| 20260906031558 | 66 | 140 | 0.0 | 1.0 | 0.00 | 0.01 | 0.01 | 89 | 1012.4 |
| 20260906031032 | 66 | 157 | 0.0 | 0.0 | 0.00 | 0.01 | 0.01 | 88 | 1012.3 |
| 20260906030530 | 66 | 157 | 0.0 | 1.0 | 0.00 | 0.01 | 0.01 | 87 | 1012.4 |
| 20260906030032 | 67 | 139 | 0.0 | 1.0 | 0.00 | 0.01 | 0.01 | 87 | 1012.5 |
| 20260906025531 | 67 | 139 | 0.0 | 0.0 | 0.00 | 0.01 | 0.01 | 86 | 1012.4 |
| 20260906025032 | 67 | 139 | 0.0 | 2.0 | 0.00 | 0.01 | 0.01 | 86 | 1012.5 |
| 20260906024550 | 67 | 139 | 0.0 | 2.0 | 0.00 | 0.01 | 0.01 | 87 | 1012.4 |
| 20260906024031 | 67 | 156 | 0.0 | 1.0 | 0.00 | 0.01 | 0.01 | 87 | 1012.4 |
| 20260906023530 | 67 | 171 | 0.0 | 1.0 | 0.00 | 0.01 | 0.01 | 87 | 1012.5 |
| 20260906023027 | 66 | 166 | 0.0 | 1.0 | 0.00 | 0.01 | 0.01 | 87 | 1012.4 |
| 20260906022526 | 66 | 166 | 0.0 | 1.0 | 0.00 | 0.01 | 0.01 | 86 | 1012.3 |
| 20260906022025 | 67 | 162 | 0.0 | 1.0 | 0.00 | 0.01 | 0.01 | 86 | 1012.2 |
| 20260906021524 | 67 | 207 | 0.0 | 0.0 | 0.00 | 0.01 | 0.01 | 84 | 1012.2 |
| 20260906021024 | 68 | 207 | 0.0 | 0.0 | 0.00 | 0.01 | 0.01 | 83 | 1012.1 |
| 20260906020527 | 68 | 207 | 0.0 | 0.0 | 0.00 | 0.01 | 0.01 | 83 | 1012.2 |
| 20260906020024 | 68 | 207 | 0.0 | 0.0 | 0.00 | 0.01 | 0.01 | 82 | 1012.1 |
| 20260906015525 | 69 | 207 | 0.0 | 0.0 | 0.00 | 0.01 | 0.01 | 81 | 1012.2 |
| 20260906015023 | 69 | 207 | 0.0 | 0.0 | 0.00 | 0.01 | 0.01 | 80 | 1012.2 |
| 20260906014524 | 69 | 207 | 0.0 | 0.0 | 0.00 | 0.01 | 0.01 | 80 | 1012.1 |
| 20260906014023 | 69 | 207 | 0.0 | 1.0 | 0.00 | 0.01 | 0.01 | 79 | 1012.0 |
| 20260906013523 | 70 | 207 | 0.0 | 1.0 | 0.00 | 0.01 | 0.01 | 79 | 1012.0 |
| 20260906013023 | 70 | 207 | 0.0 | 1.0 | 0.00 | 0.01 | 0.01 | 77 | 1012.1 |
| 20260906012523 | 71 | 349 | 0.0 | 1.0 | 0.00 | 0.01 | 0.01 | 76 | 1011.9 |
| 20260906012022 | 71 | 349 | 0.0 | 1.0 | 0.00 | 0.01 | 0.01 | 75 | 1011.8 |
| 20260906011522 | 72 | 349 | 0.0 | 3.0 | 0.00 | 0.01 | 0.01 | 74 | 1011.9 |
| 20260906011021 | 72 | 349 | 0.0 | 3.0 | 0.00 | 0.01 | 0.01 | 74 | 1011.8 |
| 20260906010522 | 72 | 343 | 0.0 | 2.0 | 0.00 | 0.01 | 0.01 | 73 | 1011.8 |
| 20260906010040 | 72 | 326 | 0.0 | 5.0 | 0.00 | 0.01 | 0.01 | 73 | 1011.5 |
| 20260906005521 | 72 | 11 | 1.0 | 5.0 | 0.00 | 0.01 | 0.01 | 73 | 1011.4 |
| 20260906005022 | 73 | 336 | 1.0 | 10.0 | 0.00 | 0.01 | 0.01 | 72 | 1011.4 |
| 20260906004522 | 73 | 11 | 1.0 | 10.0 | 0.00 | 0.01 | 0.01 | 72 | 1011.5 |
| 20260906004022 | 73 | 326 | 1.0 | 5.0 | 0.00 | 0.01 | 0.01 | 71 | 1011.3 |
| 20260906003521 | 73 | 320 | 1.0 | 7.0 | 0.00 | 0.01 | 0.01 | 71 | 1011.3 |
| 20260906003021 | 73 | 311 | 1.0 | 4.0 | 0.00 | 0.01 | 0.01 | 71 | 1011.4 |
| 20260906002520 | 73 | 18 | 0.0 | 3.0 | 0.00 | 0.01 | 0.01 | 70 | 1011.4 |
| 20260906002024 | 73 | 341 | 0.0 | 4.0 | 0.00 | 0.01 | 0.01 | 70 | 1011.3 |
| 20260906001524 | 73 | 354 | 1.0 | 4.0 | 0.00 | 0.01 | 0.01 | 70 | 1011.2 |
| 20260906001019 | 73 | 343 | 1.0 | 4.0 | 0.00 | 0.01 | 0.01 | 70 | 1011.2 |
| 20260906000519 | 73 | 345 | 2.0 | 3.0 | 0.00 | 0.01 | 0.01 | 70 | 1011.1 |
| 20260906000021 | 73 | 351 | 0.0 | 2.0 | 0.00 | 0.01 | 0.01 | 70 | 1011.0 |
| 20260905235519 | 73 | 355 | 0.0 | 0.0 | 0.00 | 0.01 | 0.01 | 70 | 1010.9 |
| 20260905235021 | 74 | 355 | 0.0 | 0.0 | 0.00 | 0.01 | 0.01 | 69 | 1010.9 |
| 20260905234518 | 74 | 355 | 0.0 | 0.0 | 0.00 | 0.01 | 0.01 | 68 | 1011.0 |
| 20260905234019 | 75 | 355 | 0.0 | 0.0 | 0.00 | 0.01 | 0.01 | 67 | 1010.9 |
| 20260905233519 | 75 | 355 | 0.0 | 1.0 | 0.00 | 0.01 | 0.01 | 67 | 1010.9 |
| 20260905233020 | 76 | 355 | 0.0 | 1.0 | 0.00 | 0.01 | 0.01 | 67 | 1010.8 |
| 20260905232518 | 76 | 355 | 0.0 | 3.0 | 0.00 | 0.01 | 0.01 | 67 | 1010.9 |
| 20260905232018 | 76 | 354 | 0.0 | 2.0 | 0.00 | 0.01 | 0.01 | 66 | 1010.9 |
| 20260905231517 | 76 | 353 | 0.0 | 3.0 | 0.00 | 0.01 | 0.01 | 65 | 1010.8 |
| 20260905231019 | 77 | 360 | 0.0 | 3.0 | 0.00 | 0.01 | 0.01 | 64 | 1010.8 |
| 20260905230517 | 77 | 360 | 0.0 | 4.0 | 0.00 | 0.01 | 0.01 | 63 | 1010.8 |
| 20260905230030 | 77 | 340 | 1.0 | 4.0 | 0.00 | 0.01 | 0.01 | 63 | 1010.9 |
| 20260905225521 | 77 | 8 | 0.0 | 5.0 | 0.00 | 0.01 | 0.01 | 62 | 1010.9 |
| 20260905225017 | 77 | 346 | 1.0 | 6.0 | 0.00 | 0.01 | 0.01 | 62 | 1010.9 |
| 20260905224520 | 78 | 7 | 3.0 | 6.0 | 0.00 | 0.01 | 0.01 | 60 | 1011.0 |
| 20260905224017 | 78 | 340 | 1.0 | 11.0 | 0.00 | 0.01 | 0.01 | 60 | 1011.0 |
| 20260905223516 | 78 | 347 | 2.0 | 11.0 | 0.00 | 0.01 | 0.01 | 60 | 1010.9 |
| 20260905223018 | 78 | 349 | 2.0 | 8.0 | 0.00 | 0.01 | 0.01 | 59 | 1011.0 |
| 20260905222517 | 78 | 40 | 2.0 | 9.0 | 0.00 | 0.01 | 0.01 | 59 | 1011.1 |
| 20260905222015 | 78 | 20 | 2.0 | 9.0 | 0.00 | 0.01 | 0.01 | 58 | 1010.9 |
| 20260905221615 | 79 | 352 | 1.0 | 8.0 | 0.00 | 0.01 | 0.01 | 58 | 1011.0 |
| 20260905221016 | 79 | 344 | 1.0 | 9.0 | 0.00 | 0.01 | 0.01 | 58 | 1010.9 |
| 20260905220516 | 79 | 323 | 4.0 | 9.0 | 0.00 | 0.01 | 0.01 | 57 | 1010.9 |
| 20260905220016 | 79 | 311 | 2.0 | 8.0 | 0.00 | 0.01 | 0.01 | 57 | 1010.9 |
| 20260905215516 | 79 | 20 | 3.0 | 8.0 | 0.00 | 0.01 | 0.01 | 56 | 1011.0 |
| 20260905215014 | 80 | 316 | 3.0 | 8.0 | 0.00 | 0.01 | 0.01 | 55 | 1010.8 |
| 20260905214515 | 80 | 335 | 1.0 | 8.0 | 0.00 | 0.01 | 0.01 | 56 | 1010.8 |
| 20260905214014 | 80 | 10 | 2.0 | 9.0 | 0.00 | 0.01 | 0.01 | 54 | 1010.7 |
| 20260905213517 | 80 | 17 | 2.0 | 8.0 | 0.00 | 0.01 | 0.01 | 54 | 1010.6 |
| 20260905213014 | 80 | 6 | 3.0 | 12.0 | 0.00 | 0.01 | 0.01 | 53 | 1010.7 |
| 20260905212513 | 80 | 4 | 2.0 | 12.0 | 0.00 | 0.01 | 0.01 | 53 | 1010.7 |
| 20260905212012 | 80 | 358 | 4.0 | 12.0 | 0.00 | 0.01 | 0.01 | 52 | 1010.7 |
| 20260905211529 | 80 | 325 | 3.0 | 12.0 | 0.00 | 0.01 | 0.01 | 51 | 1010.8 |
| 20260905211013 | 80 | 307 | 0.0 | 10.0 | 0.00 | 0.01 | 0.01 | 52 | 1010.6 |
| 20260905210512 | 81 | 349 | 3.0 | 8.0 | 0.00 | 0.01 | 0.01 | 51 | 1010.7 |
| 20260905210012 | 81 | 335 | 0.0 | 12.0 | 0.00 | 0.01 | 0.01 | 52 | 1010.8 |
| 20260905205511 | 80 | 336 | 3.0 | 12.0 | 0.00 | 0.01 | 0.01 | 52 | 1010.7 |
| 20260905205011 | 80 | 329 | 2.0 | 13.0 | 0.00 | 0.01 | 0.01 | 52 | 1010.7 |
| 20260905204510 | 80 | 345 | 3.0 | 13.0 | 0.00 | 0.01 | 0.01 | 54 | 1010.7 |
| 20260905204015 | 81 | 309 | 4.0 | 9.0 | 0.00 | 0.01 | 0.01 | 53 | 1010.7 |
| 20260905203510 | 81 | 329 | 2.0 | 9.0 | 0.00 | 0.01 | 0.01 | 55 | 1010.7 |
| 20260905203009 | 81 | 24 | 2.0 | 5.0 | 0.00 | 0.01 | 0.01 | 58 | 1010.6 |
| 20260905202508 | 80 | 347 | 0.0 | 2.0 | 0.00 | 0.01 | 0.01 | 61 | 1010.7 |
| 20260905202007 | 79 | 271 | 0.0 | 4.0 | 0.00 | 0.01 | 0.01 | 62 | 1010.7 |
| 20260905201505 | 79 | 347 | 2.0 | 4.0 | 0.00 | 0.01 | 0.01 | 61 | 1010.8 |
| 20260905201005 | 80 | 345 | 1.0 | 4.0 | 0.00 | 0.01 | 0.01 | 62 | 1010.7 |
| 20260905200508 | 79 | 2 | 0.0 | 6.0 | 0.00 | 0.01 | 0.01 | 63 | 1010.7 |
| 20260905200008 | 79 | 345 | 1.0 | 6.0 | 0.00 | 0.01 | 0.01 | 61 | 1010.7 |
| 20260905195505 | 79 | 359 | 1.0 | 3.0 | 0.00 | 0.01 | 0.01 | 61 | 1010.6 |
| 20260905195004 | 78 | 182 | 0.0 | 3.0 | 0.00 | 0.01 | 0.01 | 63 | 1010.6 |
| 20260905194504 | 78 | 76 | 0.0 | 2.0 | 0.00 | 0.01 | 0.01 | 63 | 1010.7 |
| 20260905194003 | 77 | 210 | 0.0 | 2.0 | 0.00 | 0.01 | 0.01 | 64 | 1010.5 |
| 20260905193502 | 76 | 207 | 0.0 | 2.0 | 0.00 | 0.01 | 0.01 | 66 | 1010.4 |
| 20260905193002 | 75 | 340 | 0.0 | 2.0 | 0.00 | 0.01 | 0.01 | 66 | 1010.5 |
| 20260905192503 | 75 | 86 | 0.0 | 2.0 | 0.00 | 0.01 | 0.01 | 67 | 1010.4 |
| 20260905192100 | 74 | 18 | 0.0 | 4.0 | 0.00 | 0.01 | 0.01 | 69 | 1010.4 |
| 20260905192000 | 74 | 319 | 0.0 | 4.0 | 0.00 | 0.01 | 0.01 | 70 | 1010.4 |
| 20260905191501 | 74 | 346 | 1.0 | 6.0 | 0.00 | 0.01 | 0.01 | 71 | 1010.4 |
| 20260905191003 | 73 | 84 | 1.0 | 6.0 | 0.00 | 0.01 | 0.01 | 72 | 1010.3 |
| 20260905190501 | 73 | 152 | 0.0 | 2.0 | 0.00 | 0.01 | 0.01 | 76 | 1010.3 |
| 20260905190100 | 73 | 25 | 0.0 | 3.0 | 0.00 | 0.01 | 0.01 | 77 | 1010.2 |
| 20260905185601 | 72 | 12 | 0.0 | 3.0 | 0.00 | 0.01 | 0.01 | 79 | 1010.3 |
| 20260905185059 | 72 | 347 | 2.0 | 3.0 | 0.00 | 0.01 | 0.01 | 77 | 1010.3 |
| 20260905184559 | 72 | 351 | 0.0 | 2.0 | 0.01 | 0.01 | 0.01 | 78 | 1010.4 |
| 20260905184058 | 72 | 358 | 0.0 | 2.0 | 0.01 | 0.01 | 0.01 | 77 | 1010.4 |
| 20260905183558 | 72 | 358 | 0.0 | 2.0 | 0.01 | 0.01 | 0.01 | 78 | 1010.5 |
| 20260905183058 | 71 | 3 | 0.0 | 2.0 | 0.01 | 0.01 | 0.01 | 79 | 1010.6 |
| 20260905182556 | 71 | 134 | 0.0 | 1.0 | 0.01 | 0.01 | 0.01 | 82 | 1010.9 |
| 20260905182055 | 70 | 212 | 0.0 | 1.0 | 0.01 | 0.01 | 0.01 | 83 | 1011.1 |
| 20260905181555 | 69 | 195 | 0.0 | 5.0 | 0.01 | 0.01 | 0.01 | 84 | 1011.2 |
| 20260905181052 | 68 | 179 | 1.0 | 5.0 | 0.01 | 0.01 | 0.01 | 84 | 1011.5 |
| 20260905180553 | 69 | 212 | 1.0 | 4.0 | 0.01 | 0.01 | 0.01 | 84 | 1011.9 |
| 20260905180101 | 69 | 357 | 0.0 | 3.0 | 0.01 | 0.01 | 0.01 | 82 | 1011.7 |
| 20260905175553 | 69 | 357 | 0.0 | 3.0 | 0.01 | 0.01 | 0.01 | 79 | 1011.7 |
| 20260905175052 | 69 | 355 | 0.0 | 2.0 | 0.01 | 0.01 | 0.01 | 79 | 1011.5 |
| 20260905174555 | 70 | 7 | 0.0 | 5.0 | 0.00 | 0.00 | 0.00 | 77 | 1011.6 |
| 20260905174054 | 71 | 333 | 0.0 | 6.0 | 0.00 | 0.00 | 0.00 | 75 | 1012.3 |
| 20260905173551 | 71 | 356 | 1.0 | 7.0 | 0.00 | 0.00 | 0.00 | 72 | 1012.7 |
| 20260905173100 | 72 | 360 | 2.0 | 7.0 | 0.00 | 0.00 | 0.00 | 70 | 1013.0 |
| 20260905172550 | 73 | 350 | 1.0 | 10.0 | 0.00 | 0.00 | 0.00 | 69 | 1012.9 |
| 20260905172050 | 73 | 345 | 3.0 | 10.0 | 0.00 | 0.00 | 0.00 | 68 | 1013.2 |
| 20260905171549 | 74 | 349 | 1.0 | 6.0 | 0.00 | 0.00 | 0.00 | 67 | 1013.3 |
| 20260905171048 | 74 | 7 | 0.0 | 7.0 | 0.00 | 0.00 | 0.00 | 66 | 1013.4 |
| 20260905170549 | 74 | 357 | 0.0 | 16.0 | 0.00 | 0.00 | 0.00 | 67 | 1013.6 |
| 20260905170049 | 75 | 327 | 6.0 | 16.0 | 0.00 | 0.00 | 0.00 | 65 | 1013.6 |
| 20260905165548 | 76 | 337 | 5.0 | 17.0 | 0.00 | 0.00 | 0.00 | 65 | 1013.6 |
| 20260905165052 | 77 | 339 | 8.0 | 25.0 | 0.00 | 0.00 | 0.00 | 66 | 1013.4 |
| 20260905164548 | 78 | 26 | 7.0 | 25.0 | 0.00 | 0.00 | 0.00 | 68 | 1013.3 |
| 20260905164047 | 79 | 315 | 3.0 | 13.0 | 0.00 | 0.00 | 0.00 | 71 | 1013.2 |
| 20260905163550 | 79 | 30 | 6.0 | 13.0 | 0.00 | 0.00 | 0.00 | 69 | 1013.2 |
| 20260905163049 | 79 | 328 | 2.0 | 17.0 | 0.00 | 0.00 | 0.00 | 69 | 1013.3 |
| 20260905162548 | 80 | 317 | 5.0 | 17.0 | 0.00 | 0.00 | 0.00 | 67 | 1013.2 |
| 20260905162046 | 80 | 353 | 5.0 | 15.0 | 0.00 | 0.00 | 0.00 | 66 | 1013.1 |
| 20260905161546 | 81 | 142 | 3.0 | 16.0 | 0.00 | 0.00 | 0.00 | 65 | 1012.9 |
| 20260905161047 | 81 | 356 | 3.0 | 14.0 | 0.00 | 0.00 | 0.00 | 65 | 1012.8 |
| 20260905160546 | 81 | 306 | 3.0 | 14.0 | 0.00 | 0.00 | 0.00 | 64 | 1012.8 |
| 20260905160046 | 81 | 291 | 3.0 | 13.0 | 0.00 | 0.00 | 0.00 | 64 | 1012.7 |
| 20260905155549 | 81 | 338 | 2.0 | 9.0 | 0.00 | 0.00 | 0.00 | 68 | 1012.9 |
| 20260905155046 | 81 | 324 | 3.0 | 9.0 | 0.00 | 0.00 | 0.00 | 68 | 1013.0 |
| 20260905154546 | 80 | 245 | 2.0 | 14.0 | 0.00 | 0.00 | 0.00 | 70 | 1013.1 |
| 20260905154048 | 80 | 339 | 3.0 | 14.0 | 0.00 | 0.00 | 0.00 | 70 | 1013.0 |
| 20260905153545 | 80 | 330 | 5.0 | 13.0 | 0.00 | 0.00 | 0.00 | 68 | 1013.1 |
| 20260905153045 | 80 | 257 | 6.0 | 13.0 | 0.00 | 0.00 | 0.00 | 67 | 1012.9 |
| 20260905152545 | 80 | 331 | 3.0 | 12.0 | 0.00 | 0.00 | 0.00 | 67 | 1013.0 |
| 20260905152044 | 81 | 360 | 3.0 | 14.0 | 0.00 | 0.00 | 0.00 | 67 | 1012.9 |
| 20260905151548 | 80 | 51 | 5.0 | 14.0 | 0.00 | 0.00 | 0.00 | 68 | 1012.9 |
| 20260905151044 | 81 | 336 | 4.0 | 11.0 | 0.00 | 0.00 | 0.00 | 68 | 1012.7 |
| 20260905150544 | 81 | 314 | 3.0 | 11.0 | 0.00 | 0.00 | 0.00 | 69 | 1012.6 |
| 20260905150044 | 80 | 349 | 5.0 | 11.0 | 0.00 | 0.00 | 0.00 | 69 | 1012.6 |
| 20260905145543 | 81 | 12 | 6.0 | 11.0 | 0.00 | 0.00 | 0.00 | 68 | 1012.6 |
| 20260905145042 | 81 | 327 | 4.0 | 8.0 | 0.00 | 0.00 | 0.00 | 68 | 1012.6 |
| 20260905144541 | 81 | 4 | 3.0 | 12.0 | 0.00 | 0.00 | 0.00 | 68 | 1012.6 |
| 20260905144044 | 82 | 333 | 4.0 | 12.0 | 0.00 | 0.00 | 0.00 | 66 | 1012.7 |
| 20260905143544 | 82 | 340 | 0.0 | 5.0 | 0.00 | 0.00 | 0.00 | 69 | 1012.8 |
| 20260905143047 | 82 | 37 | 1.0 | 5.0 | 0.00 | 0.00 | 0.00 | 69 | 1012.7 |
| 20260905142541 | 82 | 300 | 0.0 | 2.0 | 0.00 | 0.00 | 0.00 | 70 | 1012.8 |
| 20260905142038 | 81 | 15 | 0.0 | 3.0 | 0.00 | 0.00 | 0.00 | 72 | 1012.8 |
| 20260905141535 | 81 | 20 | 0.0 | 3.0 | 0.00 | 0.00 | 0.00 | 72 | 1012.9 |
| 20260905141034 | 81 | 350 | 1.0 | 3.0 | 0.00 | 0.00 | 0.00 | 71 | 1012.9 |
| 20260905140534 | 81 | 255 | 0.0 | 1.0 | 0.00 | 0.00 | 0.00 | 74 | 1012.9 |
| 20260905140032 | 79 | 251 | 0.0 | 2.0 | 0.00 | 0.00 | 0.00 | 78 | 1012.8 |
| 20260905135529 | 78 | 335 | 0.0 | 3.0 | 0.00 | 0.00 | 0.00 | 79 | 1012.8 |
| 20260905135033 | 78 | 330 | 1.0 | 3.0 | 0.00 | 0.00 | 0.00 | 80 | 1012.8 |
| 20260905134533 | 77 | 331 | 1.0 | 2.0 | 0.00 | 0.00 | 0.00 | 80 | 1012.8 |
| 20260905134028 | 77 | 341 | 0.0 | 3.0 | 0.00 | 0.00 | 0.00 | 82 | 1012.7 |
| 20260905133523 | 76 | 341 | 1.0 | 3.0 | 0.00 | 0.00 | 0.00 | 83 | 1012.8 |
| 20260905133023 | 75 | 354 | 1.0 | 3.0 | 0.00 | 0.00 | 0.00 | 83 | 1013.0 |
| 20260905132521 | 75 | 354 | 0.0 | 2.0 | 0.00 | 0.00 | 0.00 | 85 | 1013.0 |
| 20260905132022 | 74 | 354 | 1.0 | 2.0 | 0.00 | 0.00 | 0.00 | 87 | 1013.2 |
| 20260905131521 | 73 | 350 | 0.0 | 2.0 | 0.00 | 0.00 | 0.00 | 89 | 1013.3 |
| 20260905131016 | 72 | 349 | 0.0 | 1.0 | 0.00 | 0.00 | 0.00 | 91 | 1013.3 |
| 20260905130515 | 72 | 37 | 0.0 | 0.0 | 0.00 | 0.00 | 0.00 | 94 | 1013.4 |
| 20260905130013 | 71 | 42 | 0.0 | 0.0 | 0.00 | 0.00 | 0.00 | 96 | 1013.6 |
| 20260905125511 | 70 | 42 | 0.0 | 0.0 | 0.00 | 0.00 | 0.00 | 96 | 1013.6 |
| 20260905125011 | 69 | 113 | 0.0 | 0.0 | 0.00 | 0.00 | 0.00 | 96 | 1013.7 |
| 20260905124511 | 69 | 113 | 0.0 | 1.0 | 0.00 | 0.00 | 0.00 | 95 | 1013.6 |
| 20260905124011 | 68 | 113 | 0.0 | 1.0 | 0.00 | 0.00 | 0.00 | 96 | 1013.6 |
| 20260905123507 | 67 | 113 | 0.0 | 0.0 | 0.00 | 0.00 | 0.00 | 95 | 1013.5 |
| 20260905123007 | 67 | 113 | 0.0 | 0.0 | 0.00 | 0.00 | 0.00 | 96 | 1013.6 |
| 20260905122505 | 66 | 113 | 0.0 | 0.0 | 0.00 | 0.00 | 0.00 | 96 | 1013.5 |
| 20260905122003 | 66 | 113 | 0.0 | 0.0 | 0.00 | 0.00 | 0.00 | 96 | 1013.4 |
| 20260905121505 | 65 | 113 | 0.0 | 0.0 | 0.00 | 0.00 | 0.00 | 96 | 1013.5 |
| 20260905121003 | 65 | 113 | 0.0 | 0.0 | 0.00 | 0.00 | 0.00 | 96 | 1013.5 |
| 20260905120502 | 65 | 113 | 0.0 | 0.0 | 0.00 | 0.00 | 0.00 | 96 | 1013.4 |
| 20260905120003 | 64 | 113 | 0.0 | 0.0 | 0.00 | 0.00 | 0.00 | 95 | 1013.5 |
| 20260905115502 | 64 | 113 | 0.0 | 0.0 | 0.00 | 0.00 | 0.00 | 96 | 1013.4 |
| 20260905115005 | 63 | 113 | 0.0 | 0.0 | 0.00 | 0.00 | 0.00 | 96 | 1013.4 |
| 20260905114502 | 63 | 113 | 0.0 | 0.0 | 0.00 | 0.00 | 0.00 | 96 | 1013.4 |
| 20260905114101 | 63 | 113 | 0.0 | 0.0 | 0.00 | 0.00 | 0.00 | 96 | 1013.2 |
| 20260905113600 | 63 | 113 | 0.0 | 0.0 | 0.00 | 0.00 | 0.00 | 96 | 1013.1 |
| 20260905113100 | 63 | 113 | 0.0 | 0.0 | 0.00 | 0.00 | 0.00 | 96 | 1013.1 |
| 20260905112600 | 62 | 113 | 0.0 | 0.0 | 0.00 | 0.00 | 0.00 | 96 | 1013.0 |
| 20260905112100 | 62 | 113 | 0.0 | 0.0 | 0.00 | 0.00 | 0.00 | 96 | 1012.9 |
| 20260905111559 | 62 | 113 | 0.0 | 0.0 | 0.00 | 0.00 | 0.00 | 96 | 1013.0 |
| 20260905111100 | 62 | 113 | 0.0 | 0.0 | 0.00 | 0.00 | 0.00 | 96 | 1013.0 |
| 20260905110558 | 62 | 113 | 0.0 | 0.0 | 0.00 | 0.00 | 0.00 | 96 | 1012.9 |
| 20260905110110 | 62 | 113 | 0.0 | 0.0 | 0.00 | 0.00 | 0.00 | 96 | 1012.9 |
| 20260905105558 | 62 | 113 | 0.0 | 0.0 | 0.00 | 0.00 | 0.00 | 96 | 1012.8 |
| 20260905105058 | 62 | 113 | 0.0 | 0.0 | 0.00 | 0.00 | 0.00 | 96 | 1012.7 |
| 20260905104558 | 62 | 113 | 0.0 | 0.0 | 0.00 | 0.00 | 0.00 | 96 | 1012.7 |
| 20260905104056 | 62 | 113 | 0.0 | 0.0 | 0.00 | 0.00 | 0.00 | 96 | 1012.7 |
| 20260905103559 | 63 | 113 | 0.0 | 0.0 | 0.00 | 0.00 | 0.00 | 96 | 1012.7 |
| 20260905103056 | 63 | 113 | 0.0 | 0.0 | 0.00 | 0.00 | 0.00 | 96 | 1012.8 |
| 20260905102655 | 63 | 113 | 0.0 | 0.0 | 0.00 | 0.00 | 0.00 | 96 | 1012.8 |
| 20260905102056 | 63 | 113 | 0.0 | 0.0 | 0.00 | 0.00 | 0.00 | 96 | 1012.7 |
| 20260905101605 | 63 | 113 | 0.0 | 0.0 | 0.00 | 0.00 | 0.00 | 96 | 1012.6 |
| 20260905101054 | 63 | 113 | 0.0 | 0.0 | 0.00 | 0.00 | 0.00 | 96 | 1012.7 |
| 20260905100554 | 63 | 113 | 0.0 | 0.0 | 0.00 | 0.00 | 0.00 | 96 | 1012.7 |
| 20260905100054 | 63 | 113 | 0.0 | 0.0 | 0.00 | 0.00 | 0.00 | 96 | 1012.6 |
| 20260905095555 | 63 | 113 | 0.0 | 0.0 | 0.00 | 0.00 | 0.00 | 96 | 1012.6 |
| 20260905095054 | 63 | 113 | 0.0 | 0.0 | 0.00 | 0.00 | 0.00 | 96 | 1012.6 |
| 20260905094554 | 63 | 113 | 0.0 | 0.0 | 0.00 | 0.00 | 0.00 | 96 | 1012.5 |
| 20260905094054 | 62 | 113 | 0.0 | 0.0 | 0.00 | 0.00 | 0.00 | 96 | 1012.5 |
| 20260905093553 | 63 | 113 | 0.0 | 0.0 | 0.00 | 0.00 | 0.00 | 96 | 1012.3 |
| 20260905093053 | 63 | 113 | 0.0 | 0.0 | 0.00 | 0.00 | 0.00 | 96 | 1012.3 |
| 20260905092552 | 63 | 113 | 0.0 | 0.0 | 0.00 | 0.00 | 0.00 | 96 | 1012.3 |
| 20260905092052 | 63 | 113 | 0.0 | 0.0 | 0.00 | 0.00 | 0.00 | 96 | 1012.4 |
| 20260905091602 | 63 | 113 | 0.0 | 0.0 | 0.00 | 0.00 | 0.00 | 96 | 1012.4 |
| 20260905091050 | 63 | 113 | 0.0 | 0.0 | 0.00 | 0.00 | 0.00 | 96 | 1012.3 |
| 20260905090550 | 63 | 113 | 0.0 | 0.0 | 0.00 | 0.00 | 0.00 | 96 | 1012.4 |
| 20260905090049 | 63 | 113 | 0.0 | 0.0 | 0.00 | 0.00 | 0.00 | 96 | 1012.5 |
| 20260905085553 | 64 | 113 | 0.0 | 0.0 | 0.00 | 0.00 | 0.00 | 96 | 1012.6 |
| 20260905085050 | 64 | 113 | 0.0 | 0.0 | 0.00 | 0.00 | 0.00 | 96 | 1012.6 |
| 20260905084548 | 64 | 113 | 0.0 | 0.0 | 0.00 | 0.00 | 0.00 | 96 | 1012.6 |
| 20260905084047 | 64 | 113 | 0.0 | 0.0 | 0.00 | 0.00 | 0.00 | 96 | 1012.7 |
| 20260905083547 | 63 | 113 | 0.0 | 0.0 | 0.00 | 0.00 | 0.00 | 96 | 1012.8 |
| 20260905083046 | 63 | 113 | 0.0 | 0.0 | 0.00 | 0.00 | 0.00 | 96 | 1012.7 |
| 20260905082546 | 63 | 113 | 0.0 | 0.0 | 0.00 | 0.00 | 0.00 | 96 | 1012.8 |
| 20260905082045 | 63 | 113 | 0.0 | 0.0 | 0.00 | 0.00 | 0.00 | 96 | 1012.8 |
| 20260905081544 | 64 | 113 | 0.0 | 0.0 | 0.00 | 0.00 | 0.00 | 96 | 1012.8 |
| 20260905081047 | 64 | 113 | 0.0 | 0.0 | 0.00 | 0.00 | 0.00 | 96 | 1013.0 |
| 20260905080542 | 64 | 113 | 0.0 | 0.0 | 0.00 | 0.00 | 0.00 | 96 | 1013.0 |
| 20260905080042 | 64 | 113 | 0.0 | 0.0 | 0.00 | 0.00 | 0.00 | 96 | 1013.0 |
| 20260905075542 | 64 | 113 | 0.0 | 0.0 | 0.00 | 0.00 | 0.00 | 96 | 1013.1 |
| 20260905075042 | 64 | 113 | 0.0 | 0.0 | 0.00 | 0.00 | 0.00 | 96 | 1013.1 |
| 20260905074541 | 64 | 113 | 0.0 | 0.0 | 0.00 | 0.00 | 0.00 | 96 | 1013.2 |
| 20260905074041 | 64 | 113 | 0.0 | 0.0 | 0.00 | 0.00 | 0.00 | 96 | 1013.3 |
| 20260905073543 | 64 | 113 | 0.0 | 0.0 | 0.00 | 0.00 | 0.00 | 96 | 1013.3 |
| 20260905073040 | 64 | 113 | 0.0 | 0.0 | 0.00 | 0.00 | 0.00 | 96 | 1013.4 |
| 20260905072540 | 64 | 113 | 0.0 | 0.0 | 0.00 | 0.00 | 0.00 | 96 | 1013.3 |
| 20260905072039 | 64 | 113 | 0.0 | 0.0 | 0.00 | 0.00 | 0.00 | 96 | 1013.4 |
| 20260905071541 | 64 | 113 | 0.0 | 0.0 | 0.00 | 0.00 | 0.00 | 96 | 1013.4 |
| 20260905071039 | 64 | 113 | 0.0 | 0.0 | 0.00 | 0.00 | 0.00 | 96 | 1013.4 |
| 20260905070538 | 64 | 113 | 0.0 | 0.0 | 0.00 | 0.00 | 0.00 | 96 | 1013.4 |
| 20260905070042 | 64 | 113 | 0.0 | 0.0 | 0.00 | 0.00 | 0.00 | 96 | 1013.5 |
| 20260905065536 | 64 | 113 | 0.0 | 0.0 | 0.00 | 0.00 | 0.00 | 96 | 1013.5 |
| 20260905065038 | 64 | 113 | 0.0 | 0.0 | 0.00 | 0.00 | 0.00 | 96 | 1013.7 |
| 20260905064535 | 64 | 113 | 0.0 | 0.0 | 0.00 | 0.00 | 0.00 | 96 | 1013.7 |
| 20260905064036 | 65 | 113 | 0.0 | 0.0 | 0.00 | 0.00 | 0.00 | 96 | 1013.8 |
| 20260905063535 | 65 | 113 | 0.0 | 0.0 | 0.00 | 0.00 | 0.00 | 96 | 1013.8 |
| 20260905063033 | 65 | 113 | 0.0 | 0.0 | 0.00 | 0.00 | 0.00 | 96 | 1013.9 |
| 20260905062532 | 65 | 113 | 0.0 | 1.0 | 0.00 | 0.00 | 0.00 | 96 | 1014.0 |
| 20260905062031 | 65 | 113 | 0.0 | 1.0 | 0.00 | 0.00 | 0.00 | 96 | 1014.1 |
| 20260905061530 | 65 | 113 | 0.0 | 0.0 | 0.00 | 0.00 | 0.00 | 96 | 1014.3 |
| 20260905061029 | 65 | 113 | 0.0 | 1.0 | 0.00 | 0.00 | 0.00 | 96 | 1014.3 |
| 20260905060528 | 65 | 113 | 0.0 | 1.0 | 0.00 | 0.00 | 0.00 | 96 | 1014.4 |
| 20260905060029 | 65 | 113 | 0.0 | 1.0 | 0.00 | 0.00 | 0.00 | 95 | 1014.4 |
| 20260905055530 | 65 | 121 | 0.0 | 1.0 | 0.00 | 0.00 | 0.00 | 95 | 1014.5 |
| 20260905055028 | 65 | 121 | 0.0 | 0.0 | 0.00 | 0.00 | 0.00 | 95 | 1014.7 |
| 20260905054532 | 65 | 121 | 0.0 | 0.0 | 0.00 | 0.00 | 0.00 | 95 | 1014.8 |
| 20260905054026 | 65 | 121 | 0.0 | 0.0 | 0.00 | 0.00 | 0.00 | 95 | 1014.8 |
| 20260905053526 | 65 | 121 | 0.0 | 0.0 | 0.00 | 0.00 | 0.00 | 95 | 1014.8 |
| 20260905053025 | 65 | 121 | 0.0 | 0.0 | 0.00 | 0.00 | 0.00 | 95 | 1014.9 |
| 20260905052524 | 65 | 121 | 0.0 | 0.0 | 0.00 | 0.00 | 0.00 | 95 | 1015.0 |
| 20260905052024 | 65 | 121 | 0.0 | 0.0 | 0.00 | 0.00 | 0.00 | 95 | 1015.0 |
| 20260905051526 | 65 | 121 | 0.0 | 0.0 | 0.00 | 0.00 | 0.00 | 95 | 1015.0 |
| 20260905051023 | 65 | 121 | 0.0 | 0.0 | 0.00 | 0.00 | 0.00 | 95 | 1015.0 |
| 20260905050524 | 65 | 121 | 0.0 | 0.0 | 0.00 | 0.00 | 0.00 | 95 | 1015.1 |
| 20260905050025 | 65 | 121 | 0.0 | 0.0 | 0.00 | 0.00 | 0.00 | 95 | 1015.1 |
| 20260905045521 | 65 | 121 | 0.0 | 0.0 | 0.00 | 0.00 | 0.00 | 95 | 1015.2 |
| 20260905045025 | 65 | 121 | 0.0 | 0.0 | 0.00 | 0.00 | 0.00 | 95 | 1015.1 |
| 20260905044522 | 65 | 121 | 0.0 | 0.0 | 0.00 | 0.00 | 0.00 | 95 | 1015.0 |
| 20260905044020 | 65 | 121 | 0.0 | 0.0 | 0.00 | 0.00 | 0.00 | 94 | 1015.0 |
| 20260905043520 | 65 | 121 | 0.0 | 0.0 | 0.00 | 0.00 | 0.00 | 94 | 1015.2 |
| 20260905043021 | 65 | 121 | 0.0 | 0.0 | 0.00 | 0.00 | 0.00 | 94 | 1015.2 |
| 20260905042519 | 65 | 121 | 0.0 | 0.0 | 0.00 | 0.00 | 0.00 | 94 | 1015.0 |
| 20260905042019 | 65 | 121 | 0.0 | 0.0 | 0.00 | 0.00 | 0.00 | 94 | 1014.9 |
| 20260905041519 | 66 | 121 | 0.0 | 0.0 | 0.00 | 0.00 | 0.00 | 94 | 1014.9 |
| 20260905041019 | 66 | 121 | 0.0 | 0.0 | 0.00 | 0.00 | 0.00 | 94 | 1015.0 |
| 20260905040519 | 66 | 121 | 0.0 | 0.0 | 0.00 | 0.00 | 0.00 | 93 | 1014.9 |
| 20260905040020 | 66 | 121 | 0.0 | 0.0 | 0.00 | 0.00 | 0.00 | 94 | 1014.9 |
| 20260905035515 | 66 | 121 | 0.0 | 0.0 | 0.00 | 0.00 | 0.00 | 93 | 1014.8 |
| 20260905035013 | 66 | 121 | 0.0 | 1.0 | 0.00 | 0.00 | 0.00 | 94 | 1014.7 |
| 20260905034524 | 66 | 121 | 0.0 | 2.0 | 0.00 | 0.00 | 0.00 | 94 | 1014.7 |
| 20260905034014 | 66 | 121 | 0.0 | 2.0 | 0.00 | 0.00 | 0.00 | 94 | 1014.5 |